Location: Claremont
(33.9858°S, 18.4575°E)
Time: 06:37:55
(UTC+00:00)

Cosmos 1821 Rocket - Pass Details

Date: 03 March 2021
Orbit: 945 x 1005 km, 82.9° (Epoch: 17 April)

Event Time Altitude Azimuth Distance (km) Brightness Sun altitude
Rises 18:22:58 0° 183° (S) 3,762 7.4 -13.6°
Reaches altitude 10° 18:25:33 10° 180° (S) 2,807 6.6 -14.1°
Maximum altitude 18:31:59 67° 98° (E) 1,094 4.0 -15.4°
Drops below altitude 10° 18:38:19 10° 15° (NNE) 2,763 6.0 -16.6°
Enters shadow 18:40:06 - 13° (NNE) 3,420 6.5 -16.9°
